星链-37670(STARLINK-37670)

导读

STARLINK-37670(NORAD编号69530)是美国太空探索技术公司(SpaceX)发射的星链V1.0版低轨宽带通信卫星,2025年6月3日由猎鹰9号火箭从卡纳维拉尔角太空军站升空,属于Starlink Group 12-19批次,搭载手机直连功能。 该卫星运行于近地轨道,轨道半长轴6734.6km,倾角43°,近地点355km,运行周期约91.7分钟,最大亮度2.5等,主要为全球偏远地区提供高速低延迟互联网服务,同时可支撑航空、应急通信等场景应用,目前在轨运行状态稳定。

基本信息
目录编号:
69530
目录名称:
STARLINK-37670
国际标识:
2026-133Y
轨道中心:
EARTH
卫星名称:
星链-37670
卫星全名:
星链-37670(STARLINK-37670)
卫星状态:
在轨 (已飞行15 天)
发射日期:
2026-06-12 UTC
国别 :
美国 (US)
星等 :
--
轨道信息
数据来源 国际轨道数据
星历时间: 2026-06-27T20:00:02+0800
9小时前
查看轨道信息
半长轴: 6706.088km
偏心率: 0.0001582
轨道倾角: 53.158°
近地点辐角 76.854°
升交点赤经 269.822°
平近点角 4.851°
近地点: 326.89km
远地点: 329.012km
周期: 91.089分钟
每日圈数: 15.808801
详细信息
固有亮度:
5
最大亮度:
2.5
卫星平台:
Starlink V1.0
覆盖范围:
全球
运营商:
太空探索技术公司
运营商所在国:
美国
制造商(研发单位):
太空探索技术公司
制造商所在国:
美国
使用方式:
暂无
卫星简介
Starlink 计划是 SpaceX 推出的全球卫星互联网项目,通过发射低轨道卫星,为全球尤其是偏远地区提供高速、低延迟的互联网服务。自 2019 年起,Starlink 已部署数千颗卫星,旨在缩小全球数字鸿沟,推动互联网普及。该项目还为军事、航空等行业提供通信支持,带来广泛经济效益。
2D轨道图
3D轨道图
轨道高度分析图
轨道倾角分析图
轨道综合分析图
查看轨道综合分析图